When you browse on this site, cookies collect data to enhance your experience and personalize the content and advertising you see.
Visit our Privacy Policy to learn more. By continuing to use the site, you agree to this use of cookies and data.
  • In Latvia
  • List of Countries
  • For 7 days
  • Water Temperature
  • Satellite Maps
  • Weather Map
  • Weather Widgets
  • user-avatar
    Login

    Hourly Weather Hobart

    Today, 26 May, Sunday

    Time Temperature Precipitation Wind Pressure Humidity
    00:00 +8°C° 0 mm 3 mps 738 mmHg 75%
    01:00 +8°C° 0 mm 3 mps 737 mmHg 75%
    02:00 +8°C° 0 mm 3 mps 737 mmHg 74%
    03:00 +8°C° 0 mm 3 mps 737 mmHg 74%
    04:00 +8°C° 0 mm 3 mps 737 mmHg 73%
    05:00 +8°C° 0 mm 3 mps 737 mmHg 74%
    06:00 +8°C° 0 mm 3 mps 737 mmHg 74%
    07:00 +7°C° 0 mm 4 mps 737 mmHg 75%
    08:00 +8°C° 0 mm 4 mps 737 mmHg 69%
    09:00 +9°C° 0 mm 5 mps 737 mmHg 63%
    10:00 +11°C° 0 mm 4 mps 737 mmHg 55%
    11:00 +12°C° 0 mm 4 mps 737 mmHg 53%
    12:00 +12°C° 0 mm 4 mps 736 mmHg 50%
    13:00 +13°C° 0 mm 5 mps 736 mmHg 47%
    14:00 +13°C° 0.2 mm 4 mps 735 mmHg 53%
    15:00 +12°C° 0.2 mm 4 mps 735 mmHg 59%
    16:00 +11°C° 0 mm 4 mps 734 mmHg 68%
    17:00 +10°C° 0.4 mm 4 mps 734 mmHg 73%
    18:00 +8°C° 0.4 mm 4 mps 733 mmHg 79%
    19:00 +8°C° 0.4 mm 3 mps 733 mmHg 85%
    20:00 +8°C° 0 mm 3 mps 733 mmHg 84%
    21:00 +7°C° 0 mm 4 mps 733 mmHg 83%
    22:00 +6°C° 0 mm 5 mps 732 mmHg 82%
    23:00 +6°C° 0 mm 5 mps 732 mmHg 80%

    Tomorrow, 27 May, Monday

    Time Temperature Precipitation Wind Pressure Humidity
    00:00 +5°C° 0 mm 5 mps 732 mmHg 79%
    01:00 +5°C° 0 mm 4 mps 732 mmHg 78%
    02:00 +5°C° 0 mm 4 mps 732 mmHg 78%
    03:00 +4°C° 0 mm 4 mps 732 mmHg 78%
    04:00 +4°C° 0 mm 3 mps 731 mmHg 78%
    05:00 +4°C° 0 mm 3 mps 731 mmHg 79%
    06:00 +4°C° 0 mm 3 mps 731 mmHg 79%
    07:00 +3°C° 0 mm 3 mps 731 mmHg 80%
    08:00 +5°C° 0 mm 3 mps 731 mmHg 75%
    09:00 +7°C° 0 mm 3 mps 732 mmHg 69%
    10:00 +8°C° 0 mm 3 mps 732 mmHg 64%
    11:00 +8°C° 0 mm 4 mps 732 mmHg 58%
    12:00 +9°C° 0 mm 5 mps 732 mmHg 52%
    13:00 +10°C° 0 mm 5 mps 733 mmHg 46%
    14:00 +9°C° 0.4 mm 6 mps 733 mmHg 55%
    15:00 +8°C° 0.4 mm 6 mps 734 mmHg 64%
    16:00 +6°C° 0.4 mm 7 mps 734 mmHg 72%
    17:00 +5°C° 0 mm 6 mps 735 mmHg 74%
    18:00 +6°C° 0 mm 5 mps 735 mmHg 76%
    19:00 +5°C° 0 mm 4 mps 736 mmHg 79%
    20:00 +5°C° 0 mm 4 mps 736 mmHg 78%
    21:00 +5°C° 0 mm 4 mps 735 mmHg 78%
    22:00 +5°C° 0 mm 4 mps 735 mmHg 78%
    23:00 +6°C° 0.1 mm 4 mps 734 mmHg 77%

    Day after tomorrow, 28 May, Tuesday

    Time Temperature Precipitation Wind Pressure Humidity
    00:00 +7°C° 0.1 mm 5 mps 733 mmHg 77%
    01:00 +8°C° 0.1 mm 6 mps 732 mmHg 76%
    02:00 +7°C° 0.2 mm 6 mps 732 mmHg 75%
    03:00 +6°C° 0.2 mm 7 mps 732 mmHg 74%
    04:00 +5°C° 0.2 mm 7 mps 732 mmHg 74%
    05:00 +5°C° 0.1 mm 6 mps 732 mmHg 74%
    06:00 +4°C° 0.1 mm 6 mps 732 mmHg 75%
    07:00 +4°C° 0.1 mm 6 mps 732 mmHg 75%
    08:00 +5°C° 0.1 mm 6 mps 732 mmHg 72%
    09:00 +5°C° 0.1 mm 6 mps 732 mmHg 69%
    10:00 +5°C° 0.1 mm 7 mps 732 mmHg 66%
    11:00 +6°C° 0.3 mm 7 mps 731 mmHg 66%
    12:00 +7°C° 0.3 mm 6 mps 730 mmHg 67%
    13:00 +7°C° 0.3 mm 6 mps 730 mmHg 67%
    14:00 +7°C° 0.4 mm 6 mps 729 mmHg 70%
    15:00 +6°C° 0.4 mm 5 mps 729 mmHg 73%
    16:00 +6°C° 0.4 mm 5 mps 728 mmHg 76%
    17:00 +5°C° 0.2 mm 5 mps 728 mmHg 77%
    18:00 +5°C° 0.2 mm 4 mps 728 mmHg 79%
    19:00 +4°C° 0.2 mm 4 mps 728 mmHg 80%
    20:00 +4°C° 0.1 mm 4 mps 728 mmHg 80%
    21:00 +4°C° 0.1 mm 4 mps 728 mmHg 80%
    22:00 +4°C° 0.1 mm 4 mps 728 mmHg 80%
    23:00 +4°C° 0 mm 4 mps 727 mmHg 79%

    29 May, Wednesday

    Time Temperature Precipitation Wind Pressure Humidity
    00:00 +4°C° 0 mm 4 mps 727 mmHg 79%
    01:00 +4°C° 0 mm 4 mps 727 mmHg 79%
    02:00 +3°C° 0 mm 4 mps 727 mmHg 79%
    03:00 +3°C° 0 mm 4 mps 727 mmHg 78%
    04:00 +3°C° 0 mm 4 mps 727 mmHg 78%
    05:00 +3°C° 0 mm 4 mps 728 mmHg 78%
    06:00 +1°C° 0 mm 4 mps 728 mmHg 78%
    07:00 +1°C° 0 mm 4 mps 729 mmHg 78%
    08:00 +3°C° 0.3 mm 4 mps 730 mmHg 75%
    09:00 +4°C° 0.3 mm 4 mps 731 mmHg 72%
    10:00 +5°C° 0.3 mm 5 mps 732 mmHg 69%
    11:00 +6°C° 0.2 mm 5 mps 732 mmHg 65%
    12:00 +6°C° 0.2 mm 5 mps 733 mmHg 61%
    13:00 +7°C° 0.2 mm 5 mps 734 mmHg 56%
    14:00 +6°C° 0.2 mm 5 mps 735 mmHg 61%
    15:00 +6°C° 0.2 mm 5 mps 735 mmHg 66%
    16:00 +5°C° 0.2 mm 5 mps 736 mmHg 71%
    17:00 +5°C° 0.2 mm 5 mps 737 mmHg 75%
    18:00 +4°C° 0.2 mm 4 mps 738 mmHg 80%
    19:00 +3°C° 0.2 mm 4 mps 739 mmHg 85%
    20:00 +3°C° 0.2 mm 4 mps 740 mmHg 84%
    21:00 +4°C° 0.2 mm 4 mps 741 mmHg 84%
    22:00 +3°C° 0.2 mm 5 mps 743 mmHg 84%
    23:00 +3°C° 0.1 mm 5 mps 743 mmHg 84%

    30 May, Thursday

    Time Temperature Precipitation Wind Pressure Humidity
    00:00 +3°C° 0.1 mm 5 mps 744 mmHg 84%
    01:00 +2°C° 0.1 mm 5 mps 745 mmHg 85%
    02:00 +2°C° 0.1 mm 5 mps 746 mmHg 85%
    03:00 +3°C° 0.1 mm 4 mps 746 mmHg 86%
    04:00 +1°C° 0.1 mm 4 mps 747 mmHg 86%
    05:00 +1°C° 0.1 mm 4 mps 748 mmHg 86%
    06:00 +1°C° 0.1 mm 4 mps 748 mmHg 85%
    07:00 +1°C° 0.1 mm 4 mps 749 mmHg 85%
    08:00 +3°C° 0 mm 4 mps 750 mmHg 80%
    09:00 +5°C° 0 mm 5 mps 750 mmHg 75%
    10:00 +6°C° 0 mm 5 mps 751 mmHg 69%
    11:00 +6°C° 0 mm 5 mps 751 mmHg 68%
    12:00 +7°C° 0 mm 5 mps 751 mmHg 67%
    13:00 +7°C° 0 mm 4 mps 751 mmHg 66%
    14:00 +7°C° 0 mm 4 mps 751 mmHg 68%
    15:00 +7°C° 0 mm 4 mps 750 mmHg 71%
    16:00 +7°C° 0 mm 4 mps 750 mmHg 74%
    17:00 +8°C° 0 mm 5 mps 751 mmHg 75%
    18:00 +8°C° 0 mm 5 mps 751 mmHg 77%
    19:00 +9°C° 0 mm 5 mps 751 mmHg 78%
    20:00 +9°C° 0 mm 5 mps 751 mmHg 80%
    21:00 +9°C° 0 mm 5 mps 752 mmHg 83%
    22:00 +9°C° 0 mm 5 mps 752 mmHg 85%
    23:00 +9°C° 0 mm 5 mps 752 mmHg 83%

    31 May, Friday

    Time Temperature Precipitation Wind Pressure Humidity
    00:00 +9°C° 0 mm 5 mps 753 mmHg 82%
    01:00 +9°C° 0 mm 5 mps 753 mmHg 81%
    02:00 +9°C° 0 mm 5 mps 753 mmHg 80%
    03:00 +9°C° 0 mm 5 mps 753 mmHg 80%
    04:00 +9°C° 0 mm 5 mps 754 mmHg 80%
    05:00 +8°C° 0 mm 5 mps 754 mmHg 81%
    06:00 +8°C° 0 mm 4 mps 755 mmHg 82%
    07:00 +8°C° 0 mm 4 mps 755 mmHg 83%
    08:00 +8°C° 0 mm 5 mps 756 mmHg 79%
    09:00 +9°C° 0 mm 5 mps 756 mmHg 74%
    10:00 +10°C° 0 mm 5 mps 757 mmHg 69%
    11:00 +12°C° 0 mm 5 mps 757 mmHg 67%
    12:00 +12°C° 0 mm 5 mps 757 mmHg 64%
    13:00 +13°C° 0 mm 5 mps 757 mmHg 61%
    14:00 +12°C° 0 mm 4 mps 757 mmHg 64%
    15:00 +12°C° 0 mm 4 mps 757 mmHg 67%
    16:00 +11°C° 0 mm 3 mps 757 mmHg 70%
    17:00 +10°C° 0 mm 3 mps 758 mmHg 76%
    18:00 +9°C° 0 mm 3 mps 759 mmHg 82%
    19:00 +8°C° 0 mm 2 mps 759 mmHg 88%
    20:00 +7°C° 0 mm 2 mps 759 mmHg 90%
    21:00 +7°C° 0 mm 2 mps 760 mmHg 91%
    22:00 +7°C° 0 mm 2 mps 760 mmHg 93%
    23:00 +6°C° 0 mm 2 mps 760 mmHg 94%
    Show more